Back to catalog

STARLINK-34647

AliveCommunicationsVLEO
NORAD 64904·PAYLOAD·🇺🇸 United States

Launched Jul 26, 2025 from Cape Canaveral Space Force Station

Loading…

Next Passes (next 24 hours)

TLE

FreshSource: CelesTrak SupGP

Epoch: Sep 14, 2026, 14:27 UTC

1 64904C 25157A   26257.60256944  .00046933  00000+0  13886-2 0  2570
2 64904  53.1572 185.1026 0001197  74.2288 181.8468 15.34322318    19

Track STARLINK-34647 in real time with AllMySat

Download on the App Store